TimeEST,TemperatureF,Dew PointF,Humidity,Sea Level PressureIn,VisibilityMPH,Wind Direction,Wind SpeedMPH,Gust SpeedMPH,PrecipitationIn,Events,Conditions,WindDirDegrees,DateUTC
12:53 AM,69.1,68.0,96,29.80,7.0,Calm,Calm,-,N/A,,Scattered Clouds,0,2013-02-26 05:53:00
1:53 AM,70.0,66.9,90,29.79,9.0,SE,4.6,-,N/A,,Overcast,140,2013-02-26 06:53:00
2:53 AM,71.1,66.9,87,29.78,10.0,South,4.6,-,N/A,,Mostly Cloudy,170,2013-02-26 07:53:00
3:53 AM,71.1,66.0,84,29.74,9.0,South,9.2,-,N/A,,Clear,180,2013-02-26 08:53:00
4:53 AM,71.1,66.9,87,29.76,9.0,South,9.2,-,N/A,,Mostly Cloudy,180,2013-02-26 09:53:00
5:53 AM,71.1,66.0,84,29.75,9.0,South,10.4,-,N/A,,Mostly Cloudy,170,2013-02-26 10:53:00
6:53 AM,72.0,66.9,84,29.76,10.0,South,11.5,18.4,N/A,,Mostly Cloudy,190,2013-02-26 11:53:00
7:53 AM,72.0,68.0,87,29.75,9.0,South,12.7,24.2,N/A,,Scattered Clouds,190,2013-02-26 12:53:00
8:32 AM,73.4,69.8,88,29.78,9.0,South,11.5,20.7,N/A,,Mostly Cloudy,190,2013-02-26 13:32:00
8:53 AM,73.0,69.1,87,29.77,8.0,South,13.8,-,0.00,Rain,Light Rain,180,2013-02-26 13:53:00
9:53 AM,73.0,70.0,90,29.80,3.0,SSW,11.5,19.6,0.06,Rain,Rain,200,2013-02-26 14:53:00
10:48 AM,73.4,71.6,94,29.82,2.0,South,9.2,-,0.08,Rain,Rain,190,2013-02-26 15:48:00
10:53 AM,73.0,71.1,93,29.82,1.8,SW,10.4,21.9,0.11,Rain,Heavy Rain,220,2013-02-26 15:53:00
11:09 AM,73.4,69.8,88,29.81,3.0,WSW,10.4,23.0,0.09,Rain,Light Rain,250,2013-02-26 16:09:00
11:33 AM,73.4,69.8,88,29.83,1.8,SW,12.7,-,0.17,Rain,Heavy Rain,230,2013-02-26 16:33:00
11:40 AM,73.4,69.8,88,29.82,2.0,WSW,9.2,-,0.18,Rain,Light Rain,240,2013-02-26 16:40:00
11:48 AM,73.4,71.6,94,29.81,3.0,WSW,15.0,25.3,0.19,Rain,Light Rain,240,2013-02-26 16:48:00
11:53 AM,73.0,70.0,90,29.82,3.0,WSW,16.1,25.3,0.20,Rain,Light Rain,250,2013-02-26 16:53:00
12:07 PM,71.6,69.8,94,29.82,1.8,West,13.8,-,0.07,Rain,Heavy Rain,280,2013-02-26 17:07:00
12:19 PM,69.8,66.2,88,29.82,3.0,WSW,20.7,31.1,0.10,Rain,Light Rain,250,2013-02-26 17:19:00
12:30 PM,68.0,64.4,88,29.82,7.0,WSW,15.0,24.2,0.10,Rain,Light Rain,240,2013-02-26 17:30:00
12:53 PM,68.0,64.0,87,29.80,2.0,South,11.5,-,0.12,Rain,Light Rain,190,2013-02-26 17:53:00
1:03 PM,68.0,64.4,88,29.79,5.0,SSW,12.7,21.9,0.00,Rain,Light Rain,200,2013-02-26 18:03:00
1:53 PM,72.0,66.9,84,29.78,10.0,WSW,12.7,-,0.00,,Partly Cloudy,240,2013-02-26 18:53:00
2:53 PM,75.9,64.9,69,29.77,10.0,SW,11.5,18.4,N/A,,Partly Cloudy,230,2013-02-26 19:53:00
3:53 PM,75.0,60.1,60,29.77,10.0,West,11.5,-,N/A,,Clear,270,2013-02-26 20:53:00
4:53 PM,73.0,57.9,59,29.80,10.0,West,10.4,-,N/A,,Clear,260,2013-02-26 21:53:00
5:53 PM,71.1,59.0,66,29.80,10.0,West,11.5,-,N/A,,Clear,260,2013-02-26 22:53:00
6:53 PM,69.1,60.1,73,29.82,10.0,SW,6.9,-,N/A,,Clear,230,2013-02-26 23:53:00
7:53 PM,68.0,61.0,78,29.83,10.0,SW,8.1,-,N/A,,Partly Cloudy,230,2013-02-27 00:53:00
8:29 PM,68.0,60.8,78,29.84,10.0,SW,6.9,-,N/A,,Mostly Cloudy,230,2013-02-27 01:29:00
8:53 PM,66.9,61.0,81,29.84,10.0,SW,6.9,-,N/A,,Overcast,230,2013-02-27 01:53:00
9:53 PM,66.9,61.0,81,29.87,10.0,WSW,8.1,-,N/A,,Mostly Cloudy,250,2013-02-27 02:53:00
10:39 PM,66.2,62.6,88,29.88,9.0,WSW,9.2,-,N/A,,Scattered Clouds,250,2013-02-27 03:39:00
10:53 PM,66.0,62.1,87,29.88,9.0,WSW,6.9,-,N/A,,Clear,250,2013-02-27 03:53:00
11:53 PM,64.9,62.1,90,29.88,9.0,West,6.9,-,N/A,,Clear,260,2013-02-27 04:53:00